This is the latest recevied weather packets stored in our database for station/object W8UFO-13. If no packets are shown the sender has not sent any weather packets the latest 1 day(s).
| Time | Temp. | Humidity | Pressure | Rain* | Wind** | Luminosity | Snow |
|---|---|---|---|---|---|---|---|
| 1778081657 | 17.78° C | 95% | 1014 hPa | 2.03 mm | - | - | - |
| 1778081357 | 17.78° C | 96% | 1014 hPa | 2.54 mm | - | - | - |
| 1778081057 | 17.78° C | 96% | 1014.3 hPa | 3.3 mm | - | - | - |
| 1778080757 | 17.78° C | 96% | 1014.6 hPa | 3.56 mm | - | - | - |
| 1778079857 | 17.78° C | 96% | 1014.7 hPa | 4.83 mm | - | - | - |
| 1778079257 | 17.78° C | 96% | 1014.7 hPa | 4.57 mm | - | - | - |
| 1778078957 | 17.78° C | 96% | 1014.7 hPa | 4.57 mm | - | - | - |
| 1778078657 | 17.78° C | 96% | 1014.9 hPa | 4.83 mm | - | - | - |
| 1778078357 | 17.78° C | 96% | 1015 hPa | 5.08 mm | - | - | - |
| 1778078057 | 17.78° C | 96% | 1014.8 hPa | 5.08 mm | - | - | - |
| 1778077757 | 17.78° C | 96% | 1014.3 hPa | 4.83 mm | - | - | - |
| 1778077457 | 17.78° C | 96% | 1013.6 hPa | 4.83 mm | - | - | - |
| 1778077157 | 17.78° C | 95% | 1013.5 hPa | 5.08 mm | - | - | - |
| 1778076857 | 17.78° C | 95% | 1014 hPa | 5.59 mm | - | - | - |
| 1778076557 | 17.78° C | 95% | 1014 hPa | 5.33 mm | - | - | - |
| 1778076257 | 17.78° C | 95% | 1013.9 hPa | 5.33 mm | - | - | - |
| 1778075957 | 17.78° C | 95% | 1013.8 hPa | 5.59 mm | - | - | - |
| 1778075657 | 17.78° C | 96% | 1013.6 hPa | 6.6 mm | - | - | - |
| 1778075357 | 17.22° C | 96% | 1013.4 hPa | 6.6 mm | - | - | - |
| 1778075057 | 17.78° C | 96% | 1013.5 hPa | 6.6 mm | - | - | - |
| 1778074157 | 17.22° C | 95% | 1013.4 hPa | 7.87 mm | - | - | - |
| 1778073857 | 17.78° C | 95% | 1013.8 hPa | 7.62 mm | - | - | - |
| 1778073257 | 17.78° C | 95% | 1013.5 hPa | 6.6 mm | - | - | - |
| 1778072657 | 17.78° C | 94% | 1013.7 hPa | 6.6 mm | - | - | - |
| 1778071757 | 17.78° C | 94% | 1013.9 hPa | 5.33 mm | - | - | - |
* Rain latest hour (hover to see other rain measurements)
** Current wind speed in m/s (hover to see current wind gust speed)